H1 CPF 2 NER 2024 3 7 9 067 01 glonass132 H2 1401201 9132 39620 2024 3 7 0 0 0 2024 3 10 23 45 0 900 1 1 0 0 0 1 H9 10 0 60376 0.00000 0 3382385.353 -10567105.328 22988658.606 10 0 60376 900.00000 0 6159017.808 -10860045.835 22268839.128 10 0 60376 1800.00000 0 8791598.400 -11344584.477 21117659.422 10 0 60376 2700.00000 0 11217258.808 -11990419.569 19557563.994 10 0 60376 3600.00000 0 13380925.894 -12757057.001 17618872.116 10 0 60376 4500.00000 0 15237362.041 -13595578.985 15339189.029 10 0 60376 5400.00000 0 16752801.512 -14450779.922 12762680.641 10 0 60376 6300.00000 0 17906116.963 -15263580.267 9939225.175 10 0 60376 7200.00000 0 18689469.373 -15973617.863 6923457.369 10 0 60376 8100.00000 0 19108415.732 -16521908.880 3773722.698 10 0 60376 9000.00000 0 19181471.146 -16853467.585 550960.789 10 0 60376 9900.00000 0 18939144.092 -16919775.558 -2682461.408 10 0 60376 10800.00000 0 18422485.272 -16680996.973 -5863945.125 10 0 60376 11700.00000 0 17681210.783 -16107846.878 -8931861.703 10 0 60376 12600.00000 0 16771477.656 -15183033.376 -11826738.355 10 0 60376 13500.00000 0 15753404.581 -13902212.059 -14492405.440 10 0 60376 14400.00000 0 14688441.221 -12274411.088 -16877083.399 10 0 60376 15300.00000 0 13636695.980 -10321906.960 -18934388.517 10 0 60376 16200.00000 0 12654334.112 -8079553.715 -20624238.051 10 0 60376 17100.00000 0 11791155.380 -5593591.027 -21913637.032 10 0 60376 18000.00000 0 11088453.334 -2919978.309 -22777331.018 10 0 60376 18900.00000 0 10577246.747 -122321.808 -23198311.515 10 0 60376 19800.00000 0 10276958.506 2730521.101 -23168163.333 10 0 60376 20700.00000 0 10194598.772 5567062.342 -22687246.025 10 0 60376 21600.00000 0 10324488.145 8315920.352 -21764704.565 10 0 60376 22500.00000 0 10648533.925 10908560.706 -20418307.662 10 0 60376 23400.00000 0 11137049.175 13281925.943 -18674115.494 10 0 60376 24300.00000 0 11750081.010 15380844.523 -16565982.063 10 0 60376 25200.00000 0 12439192.679 17160117.596 -14134900.908 10 0 60376 26100.00000 0 13149624.165 18586195.448 -11428206.349 10 0 60376 27000.00000 0 13822739.421 19638372.690 -8498645.762 10 0 60376 27900.00000 0 14398655.599 20309451.605 -5403341.383 10 0 60376 28800.00000 0 14818941.387 20605845.804 -2202662.882 10 0 60376 29700.00000 0 15029268.373 20547120.458 1040965.903 10 0 60376 30600.00000 0 14981901.166 20164989.674 4264301.127 10 0 60376 31500.00000 0 14637919.069 19501815.063 7404528.015 10 0 60376 32400.00000 0 13969073.769 18608670.962 10400498.739 10 0 60376 33300.00000 0 12959203.457 17543060.301 13193933.418 10 0 60376 34200.00000 0 11605143.141 16366379.751 15730559.673 10 0 60376 35100.00000 0 9917092.761 15141243.022 17961167.959 10 0 60376 36000.00000 0 7918427.982 13928776.557 19842562.120 10 0 60376 36900.00000 0 5644962.317 12786002.259 21338387.251 10 0 60376 37800.00000 0 3143692.224 11763417.376 22419819.887 10 0 60376 38700.00000 0 471078.323 10902872.476 23066108.628 10 0 60376 39600.00000 0 -2309065.171 10235835.281 23264956.421 10 0 60376 40500.00000 0 -5127984.893 9782111.321 23012738.937 10 0 60376 41400.00000 0 -7914606.792 9549072.940 22314556.465 10 0 60376 42300.00000 0 -10598250.811 9531426.872 21184119.810 10 0 60376 43200.00000 0 -13111330.574 9711528.164 19643473.422 10 0 60376 44100.00000 0 -15391927.893 10060225.753 17722561.819 10 0 60376 45000.00000 0 -17386137.263 10538203.180 15458647.841 10 0 60376 45900.00000 0 -19050085.094 11097757.675 12895593.822 10 0 60376 46800.00000 0 -20351541.823 11684942.952 10083018.968 10 0 60376 47700.00000 0 -21271061.567 12241986.105 7075348.455 10 0 60376 48600.00000 0 -21802603.302 12709877.786 3930771.628 10 0 60376 49500.00000 0 -21953608.759 13031027.553 710128.366 10 0 60376 50400.00000 0 -21744534.296 13151873.487 -2524255.847 10 0 60376 51300.00000 0 -21207856.548 13025336.847 -5709764.625 10 0 60376 52200.00000 0 -20386593.092 12613018.612 -8784692.910 10 0 60376 53100.00000 0 -19332399.644 11887045.204 -11689434.155 10 0 60376 54000.00000 0 -18103322.919 10831485.063 -14367630.036 10 0 60376 54900.00000 0 -16761302.417 9443275.080 -16767260.875 10 0 60376 55800.00000 0 -15369525.190 7732616.152 -18841655.847 10 0 60376 56700.00000 0 -13989743.873 5722818.941 -20550403.433 10 0 60376 57600.00000 0 -12679669.989 3449603.586 -21860144.355 10 0 60376 58500.00000 0 -11490551.816 959879.908 -22745231.172 10 0 60376 59400.00000 0 -10465038.573 -1689943.708 -23188241.146 10 0 60376 60300.00000 0 -9635421.097 -4436054.758 -23180331.505 10 0 60376 61200.00000 0 -9022323.691 -7209649.140 -22721429.127 10 0 60376 62100.00000 0 -8633903.097 -9939562.829 -21820249.638 10 0 60376 63000.00000 0 -8465589.405 -12555014.039 -20494144.191 10 0 60376 63900.00000 0 -8500380.842 -14988341.842 -18768775.500 10 0 60376 64800.00000 0 -8709680.896 -17177626.824 -16677628.203 10 0 60376 65700.00000 0 -9054642.964 -19069083.642 -14261362.074 10 0 60376 66600.00000 0 -9487965.790 -20619124.477 -11567020.101 10 0 60376 67500.00000 0 -9956063.291 -21796005.981 -8647106.751 10 0 60376 68400.00000 0 -10401515.929 -22580989.840 -5558554.770 10 0 60376 69300.00000 0 -10765698.293 -22968967.700 -2361601.633 10 0 60376 70200.00000 0 -10991469.696 -22968524.318 881401.078 10 0 60376 71100.00000 0 -11025811.742 -22601436.904 4107220.455 10 0 60376 72000.00000 0 -10822299.077 -21901633.087 7252991.263 10 0 60376 72900.00000 0 -10343296.938 -20913653.204 10257455.021 10 0 60376 73800.00000 0 -9561791.117 -19690683.873 13062163.430 10 0 60376 74700.00000 0 -8462772.115 -18292247.953 15612621.505 10 0 60376 75600.00000 0 -7044114.738 -16781650.273 17859347.536 10 0 60376 76500.00000 0 -5316916.159 -15223288.312 19758829.216 10 0 60376 77400.00000 0 -3305278.733 -13679941.956 21274357.876 10 0 60376 78300.00000 0 -1045547.303 -12210156.563 22376725.716 10 0 60376 79200.00000 0 1414966.404 -10865828.627 23044773.994 10 0 60376 80100.00000 0 4019718.526 -9690094.144 23265783.247 10 0 60376 81000.00000 0 6705054.461 -8715606.324 23035699.825 10 0 60376 81900.00000 0 9402628.873 -7963272.562 22359196.016 10 0 60376 82800.00000 0 12042024.391 -7441501.152 21249564.083 10 0 60376 83700.00000 0 14553461.398 -7145986.951 19728447.340 10 0 60376 84600.00000 0 16870487.937 -7060042.883 17825414.129 10 0 60376 85500.00000 0 18932539.803 -7155461.742 15577383.168 10 0 60377 0.00000 0 20687266.269 -7393871.028 13027911.421 10 0 60377 900.00000 0 22092527.531 -7728523.534 10226356.284 10 0 60377 1800.00000 0 23117980.103 -8106448.078 7226930.966 10 0 60377 2700.00000 0 23746188.772 -8470870.778 4087665.810 10 0 60377 3600.00000 0 23973217.303 -8763805.347 869297.899 10 0 60377 4500.00000 0 23808674.794 -8928704.183 -2365891.899 10 0 60377 5400.00000 0 23275215.748 -8913059.289 -5555272.721 10 0 60377 6300.00000 0 22407514.433 -8670843.800 -8637066.145 10 0 60377 7200.00000 0 21250755.937 -8164691.320 -11551534.675 10 0 60377 8100.00000 0 19858706.243 -7367720.812 -14242133.854 10 0 60377 9000.00000 0 18291441.197 -6264929.238 -16656606.145 10 0 60377 9900.00000 0 16612828.478 -4854091.824 -18747995.548 10 0 60377 10800.00000 0 14887867.053 -3146129.996 -20475563.405 10 0 60377 11700.00000 0 13179994.827 -1164929.037 -21805587.471 10 0 60377 12600.00000 0 11548476.767 1053389.638 -22712028.355 10 0 60377 13500.00000 0 10045982.696 3461714.068 -23177049.810 10 0 60377 14400.00000 0 8716456.351 6003655.868 -23191381.890 10 0 60377 15300.00000 0 7593365.468 8615663.775 -22754518.851 10 0 60377 16200.00000 0 6698406.926 11229450.388 -21874746.660 10 0 60377 17100.00000 0 6040722.100 13774632.266 -20568998.212 10 0 60377 18000.00000 0 5616656.257 16181473.864 -18862537.669 10 0 60377 18900.00000 0 5410072.764 18383620.841 -16788478.815 10 0 60377 19800.00000 0 5393209.334 20320707.975 -14387145.782 10 0 60377 20700.00000 0 5528040.192 21940731.623 -11705287.968 10 0 60377 21600.00000 0 5768086.159 23202086.206 -8795164.323 10 0 60377 22500.00000 0 6060595.116 24075178.130 -5713515.193 10 0 60377 23400.00000 0 6348999.061 24543548.482 -2520442.703 10 0 60377 24300.00000 0 6575541.784 24604456.811 721777.118 10 0 60377 25200.00000 0 6683963.681 24268901.573 3949925.639 10 0 60377 26100.00000 0 6622127.773 23561077.124 7101090.456 10 0 60377 27000.00000 0 6344473.644 22517291.465 10113905.568 10 0 60377 27900.00000 0 5814193.749 21184392.139 12929757.168 10 0 60377 28800.00000 0 5005038.832 19617768.592 15493930.309 10 0 60377 29700.00000 0 3902675.543 17879017.114 17756673.466 10 0 60377 30600.00000 0 2505538.837 16033368.316 19674160.221 10 0 60377 31500.00000 0 825143.580 14146986.512 21209329.860 10 0 60377 32400.00000 0 -1114157.191 12284254.907 22332591.630 10 0 60377 33300.00000 0 -3275956.544 10505160.244 23022380.465 10 0 60377 34200.00000 0 -5613087.056 8862885.482 23265555.110 10 0 60377 35100.00000 0 -8069368.981 7401709.613 23057632.753 10 0 60377 36000.00000 0 -10581740.332 6155300.230 22402857.342 10 0 60377 36900.00000 0 -13082680.611 5145467.759 21314101.733 10 0 60377 37800.00000 0 -15502828.227 4381430.814 19812606.678 10 0 60377 38700.00000 0 -17773684.103 3859620.931 17927562.388 10 0 60377 39600.00000 0 -19830290.575 3564032.684 15695541.002 10 0 60377 40500.00000 0 -21613775.973 3467102.877 13159790.767 10 0 60377 41400.00000 0 -23073660.716 3531080.814 10369405.011 10 0 60377 42300.00000 0 -24169830.535 3709831.559 7378381.182 10 0 60377 43200.00000 0 -24874095.963 3950996.379 4244587.191 10 0 60377 44100.00000 0 -25171273.924 4198419.826 1028653.914 10 0 60377 45000.00000 0 -25059747.065 4394741.852 -2207185.689 10 0 60377 45900.00000 0 -24551477.327 4484046.430 -5400289.417 10 0 60377 46800.00000 0 -23671472.888 4414455.551 -8488808.428 10 0 60377 47700.00000 0 -22456730.204 4140559.529 -11412877.012 10 0 60377 48600.00000 0 -20954694.447 3625581.030 -14115767.081 10 0 60377 49500.00000 0 -19221301.576 2843181.044 -16544985.437 10 0 60377 50400.00000 0 -17318682.766 1778829.581 -18653292.791 10 0 60377 51300.00000 0 -15312626.002 430681.677 -20399624.837 10 0 60377 52200.00000 0 -13269899.950 -1190080.286 -21749897.425 10 0 60377 53100.00000 0 -11255551.226 -3059454.926 -22677679.813 10 0 60377 54000.00000 0 -9330287.465 -5141374.956 -23164722.369 10 0 60377 54900.00000 0 -7548055.441 -7388976.335 -23201327.640 10 0 60377 55800.00000 0 -5953915.627 -9746333.042 -22786556.481 10 0 60377 56700.00000 0 -4582302.495 -12150587.242 -21928264.015 10 0 60377 57600.00000 0 -3455744.025 -14534387.567 -20642963.316 10 0 60377 58500.00000 0 -2584094.733 -16828534.689 -18955518.095 10 0 60377 59400.00000 0 -1964315.007 -18964723.943 -16898669.096 10 0 60377 60300.00000 0 -1580806.404 -20878270.020 -14512402.385 10 0 60377 61200.00000 0 -1406288.805 -22510698.754 -11843171.188 10 0 60377 62100.00000 0 -1403182.025 -23812096.155 -8942986.252 10 0 60377 63000.00000 0 -1525432.569 -24743114.747 -5868392.806 10 0 60377 63900.00000 0 -1720706.853 -25276551.639 -2679354.943 10 0 60377 64800.00000 0 -1932856.180 -25398431.002 561929.481 10 0 60377 65700.00000 0 -2104546.872 -25108544.957 3792258.646 10 0 60377 66600.00000 0 -2179941.829 -24420430.271 6948675.403 10 0 60377 67500.00000 0 -2107317.685 -23360782.620 9969708.555 10 0 60377 68400.00000 0 -1841504.814 -21968334.444 12796580.985 10 0 60377 69300.00000 0 -1346045.431 -20292245.353 15374359.838 10 0 60377 70200.00000 0 -594977.634 -18390074.678 17653025.644 10 0 60377 71100.00000 0 425830.291 -16325423.096 19588439.521 10 0 60377 72000.00000 0 1717851.425 -14165343.785 21143190.090 10 0 60377 72900.00000 0 3269611.967 -11977632.458 22287304.718 10 0 60377 73800.00000 0 5056954.600 -9828109.857 22998812.761 10 0 60377 74700.00000 0 7043841.694 -7778009.758 23264151.563 10 0 60377 75600.00000 0 9183664.191 -5881580.235 23078409.209 10 0 60377 76500.00000 0 11421001.250 -4183996.315 22445401.031 10 0 60377 77400.00000 0 13693757.380 -2719668.717 21377579.886 10 0 60377 78300.00000 0 15935588.577 -1511016.554 19895783.070 10 0 60377 79200.00000 0 18078517.424 -567752.525 18028821.475 10 0 60377 80100.00000 0 20055629.545 113292.025 15812919.197 10 0 60377 81000.00000 0 21803740.684 547797.002 13291014.248 10 0 60377 81900.00000 0 23265924.912 763055.525 10511933.383 10 0 60377 82800.00000 0 24393800.066 796586.652 7529456.178 10 0 60377 83700.00000 0 25149476.394 694317.612 4401285.509 10 0 60377 84600.00000 0 25507088.104 508411.991 1187943.236 10 0 60377 85500.00000 0 25453844.339 294834.899 -2048388.555 10 0 60378 0.00000 0 24990555.796 110757.107 -5245059.070 10 0 60378 900.00000 0 24131614.390 11906.921 -8340152.604 10 0 60378 1800.00000 0 22904426.596 49981.201 -11273677.767 10 0 60378 2700.00000 0 21348322.355 270224.226 -13988725.429 10 0 60378 3600.00000 0 19512984.502 709276.972 -16432569.058 10 0 60378 4500.00000 0 17456462.570 1393388.048 -18557688.097 10 0 60378 5400.00000 0 15242852.607 2337062.954 -20322694.342 10 0 60378 6300.00000 0 12939738.543 3542210.280 -21693143.228 10 0 60378 7200.00000 0 10615500.817 4997823.000 -22642213.907 10 0 60378 8100.00000 0 8336603.741 6680210.801 -23151244.375 10 0 60378 9000.00000 0 6164974.263 8553776.482 -23210110.410 10 0 60378 9900.00000 0 4155581.396 10572306.519 -22817439.916 10 0 60378 10800.00000 0 2354317.511 12680724.243 -21980657.267 10 0 60378 11700.00000 0 796270.404 14817234.209 -20715855.428 10 0 60378 12600.00000 0 -495541.028 16915769.389 -19047496.949 10 0 60378 13500.00000 0 -1510914.041 18908639.432 -17007948.388 10 0 60378 14400.00000 0 -2252660.490 20729269.048 -14636856.160 10 0 60378 15300.00000 0 -2736248.030 22314911.046 -11980375.299 10 0 60378 16200.00000 0 -2988899.499 23609219.008 -9090265.947 10 0 60378 17100.00000 0 -3048189.293 24564570.084 -6022875.467 10 0 60378 18000.00000 0 -2960197.303 25144038.688 -2838026.894 10 0 60378 18900.00000 0 -2777300.328 25322936.690 402163.301 10 0 60378 19800.00000 0 -2555696.558 25089854.304 3634513.412 10 0 60378 20700.00000 0 -2352770.354 24447157.392 6796024.851 10 0 60378 21600.00000 0 -2224411.284 23410920.498 9825124.437 10 0 60378 22500.00000 0 -2222403.104 22010299.195 12662874.802 10 0 60378 23400.00000 0 -2391994.908 20286369.534 15254128.018 10 0 60378 24300.00000 0 -2769758.394 18290484.950 17548599.272 10 0 60378 25200.00000 0 -3381822.329 16082221.316 19501839.552 10 0 60378 26100.00000 0 -4242558.737 13726997.793 21076088.869 10 0 60378 27000.00000 0 -5353775.689 11293474.162 22240994.469 10 0 60378 27900.00000 0 -6704449.877 8850833.896 22974181.559 10 0 60378 28800.00000 0 -8271009.303 6466066.174 23261667.151 10 0 60378 29700.00000 0 -10018153.424 4201359.223 23098110.868 10 0 60378 30600.00000 0 -11900175.844 2111711.874 22486899.593 10 0 60378 31500.00000 0 -13862734.034 242860.670 21440065.821 10 0 60378 32400.00000 0 -15844992.424 -1370393.793 19978042.469 10 0 60378 33300.00000 0 -17782050.061 -2705394.291 18129259.620 10 0 60378 34200.00000 0 -19607552.610 -3752320.504 15929591.266 10 0 60378 35100.00000 0 -21256381.022 -4514342.144 13421662.637 10 0 60378 36000.00000 0 -22667306.174 -5007227.285 10654030.930 10 0 60378 36900.00000 0 -23785500.069 -5258423.761 7680254.546 10 0 60378 37800.00000 0 -24564799.961 -5305653.048 4557867.813 10 0 60378 38700.00000 0 -24969631.857 -5195076.100 1347279.949 10 0 60378 39600.00000 0 -24976513.486 -4979108.151 -1889381.473 10 0 60378 40500.00000 0 -24575074.052 -4713974.031 -5089461.189 10 0 60378 41400.00000 0 -23768547.634 -4457106.457 -8190978.916 10 0 60378 42300.00000 0 -22573718.806 -4264496.347 -11133821.439 10 0 60378 43200.00000 0 -21020321.682 -4188106.571 -13860901.620 10 0 60378 44100.00000 0 -19149915.909 -4273458.028 -16319262.339 10 0 60378 45000.00000 0 -17014284.995 -4557490.137 -18461104.170 10 0 60378 45900.00000 0 -14673422.131 -5066786.692 -20244716.963 10 0 60378 46800.00000 0 -12193185.836 -5816243.088 -21635297.182 10 0 60378 47700.00000 0 -9642721.807 -6808232.814 -22605634.760 10 0 60378 48600.00000 0 -7091757.195 -8032310.425 -23136655.619 10 0 60378 49500.00000 0 -4607879.224 -9465465.954 -23217808.503 10 0 60378 50400.00000 0 -2253911.071 -11072922.612 -22847287.561 10 0 60378 51300.00000 0 -85494.270 -12809446.766 -22032085.141 10 0 60378 52200.00000 0 1851021.320 -14621117.389 -20787872.406 10 0 60378 53100.00000 0 3520291.462 -16447482.379 -19138708.699 10 0 60378 54000.00000 0 4899223.228 -18224012.301 -17116584.043 10 0 60378 54900.00000 0 5977699.848 -19884748.899 -14760802.607 10 0 60378 55800.00000 0 6758754.053 -21365036.714 -12117218.439 10 0 60378 56700.00000 0 7258182.800 -22604222.041 -9237338.138 10 0 60378 57600.00000 0 7503620.185 -23548204.233 -6177308.180 10 0 60378 58500.00000 0 7533108.770 -24151730.308 -2996807.503 10 0 60378 59400.00000 0 7393231.317 -24380334.544 242131.800 10 0 60378 60300.00000 0 7136883.972 -24211839.942 3476351.035 10 0 60378 61200.00000 0 6820787.487 -23637357.346 6642812.910 10 0 60378 62100.00000 0 6502844.269 -22661739.743 9679844.793 10 0 60378 63000.00000 0 6239455.452 -21303472.904 12528351.355 10 0 60378 63900.00000 0 6082913.500 -19594007.761 15132971.627 10 0 60378 64800.00000 0 6078982.059 -17576563.862 17443157.177 10 0 60378 65700.00000 0 6264766.157 -15304455.555 19414150.269 10 0 60378 66600.00000 0 6666962.856 -12839012.517 21007843.381 10 0 60378 67500.00000 0 7300565.681 -10247182.784 22193504.378 10 0 60378 68400.00000 0 8168076.572 -7598919.086 22948354.716 10 0 60378 69300.00000 0 9259257.394 -4964457.587 23257991.150 10 0 60378 70200.00000 0 10551430.337 -2411601.753 23116644.615 10 0 60378 71100.00000 0 12010313.644 -3123.024 22527273.043 10 0 60378 72000.00000 0 13591357.018 2205615.486 21501487.813 10 0 60378 72900.00000 0 15241520.636 4168715.856 20059316.481 10 0 60378 73800.00000 0 16901423.604 5851399.900 18228807.113 10 0 60378 74700.00000 0 18507772.725 7231195.212 16045482.190 10 0 60378 75600.00000 0 19995971.101 8298605.886 13551652.508 10 0 60378 76500.00000 0 21302798.795 9057242.177 10795603.841 10 0 60378 77400.00000 0 22369054.741 9523405.432 7830671.303 10 0 60378 78300.00000 0 23142050.683 9725147.005 4714218.334 10 0 60378 79200.00000 0 23577853.788 9700841.298 1506538.974 10 0 60378 80100.00000 0 23643184.644 9497333.019 -1730296.400 10 0 60378 81000.00000 0 23316891.460 9167736.430 -4933630.539 10 0 60378 81900.00000 0 22590938.314 8768978.629 -8041421.907 10 0 60378 82800.00000 0 21470865.315 8359189.793 -10993437.802 10 0 60378 83700.00000 0 19975700.229 7995049.833 -13732415.546 10 0 60378 84600.00000 0 18137323.656 7729202.883 -16205169.660 10 0 60378 85500.00000 0 15999312.468 7607848.544 -18363623.822 10 0 60379 0.00000 0 13615307.965 7668611.679 -20165747.527 10 0 60379 900.00000 0 11046973.587 7938781.373 -21576380.112 10 0 60379 1800.00000 0 8361628.709 8433994.356 -22567923.443 10 0 60379 2700.00000 0 5629651.281 9157420.085 -23120892.505 10 0 60379 3600.00000 0 2921759.349 10099483.772 -23224309.937 10 0 60379 4500.00000 0 306282.583 11238141.243 -22875936.804 10 0 60379 5400.00000 0 -2153462.798 12539696.331 -22082333.787 10 0 60379 6300.00000 0 -4401586.384 13960128.584 -20858750.225 10 0 60379 7200.00000 0 -6391722.314 15446877.218 -19228841.813 10 0 60379 8100.00000 0 -8088726.333 16941007.532 -17224221.155 10 0 60379 9000.00000 0 -9469899.685 18379669.306 -14883848.841 10 0 60379 9900.00000 0 -10525688.186 19698743.586 -12253276.192 10 0 60379 10800.00000 0 -11259827.029 20835565.672 -9383754.142 10 0 60379 11700.00000 0 -11688925.591 21731608.283 -6331225.846 10 0 60379 12600.00000 0 -11841510.498 22335010.085 -3155223.453 10 0 60379 13500.00000 0 -11756568.744 22602841.139 82308.198 10 0 60379 14400.00000 0 -11481654.206 22503008.006 3318236.414 10 0 60379 15300.00000 0 -11070639.889 22015716.722 6489488.240 10 0 60379 16200.00000 0 -10581213.371 21134431.106 9534294.631 10 0 60379 17100.00000 0 -10072223.838 19866285.717 12393405.269 10 0 60379 18000.00000 0 -9600995.101 18231936.379 15011248.994 10 0 60379 18900.00000 0 -9220719.858 16264855.375 17337016.463 10 0 60379 19800.00000 0 -8978046.419 14010102.036 19325643.740 10 0 60379 20700.00000 0 -8910960.129 11522621.537 20938678.079 10 0 60379 21600.00000 0 -9047048.557 8865144.213 22145010.026 10 0 60379 22500.00000 0 -9402222.703 6105773.909 22921459.080 10 0 60379 23400.00000 0 -9979946.770 3315366.254 23253203.208 10 0 60379 24300.00000 0 -10771007.468 564805.663 23134045.771 10 0 60379 25200.00000 0 -11753831.188 -2077706.696 22566516.435 10 0 60379 26100.00000 0 -12895334.588 -4549242.853 21561805.684 10 0 60379 27000.00000 0 -14152272.225 -6794510.428 20139535.423 10 0 60379 27900.00000 0 -15473024.525 -8767891.821 18327370.871 10 0 60379 28800.00000 0 -16799751.425 -10435078.007 16160481.620 10 0 60379 29700.00000 0 -18070822.175 -11774231.571 13680862.148 10 0 60379 30600.00000 0 -19223420.569 -12776632.896 10936524.433 10 0 60379 31500.00000 0 -20196217.584 -13446784.502 7980577.526 10 0 60379 32400.00000 0 -20932000.703 -13801970.706 4870210.873 10 0 60379 33300.00000 0 -21380150.649 -13871291.951 1665599.972 10 0 60379 34200.00000 0 -21498862.590 -13694214.899 -1571245.528 10 0 60379 35100.00000 0 -21257018.895 -13318699.018 -4777670.017 10 0 60379 36000.00000 0 -20635634.678 -12798978.007 -7891574.371 10 0 60379 36900.00000 0 -19628814.962 -12193088.942 -10852610.046 10 0 60379 37800.00000 0 -18244182.119 -11560252.455 -13603342.343 10 0 60379 38700.00000 0 -16502754.071 -10958213.699 -16090360.758 10 0 60379 39600.00000 0 -14438276.421 -10440655.708 -18265315.114 10 0 60379 40500.00000 0 -12096034.162 -10054794.013 -20085857.493 10 0 60379 41400.00000 0 -9531190.332 -9839254.127 -21516471.608 10 0 60379 42300.00000 0 -6806718.722 -9822321.990 -22529173.191 10 0 60379 43200.00000 0 -3991014.744 -10020642.200 -23104067.257 10 0 60379 44100.00000 0 -1155282.304 -10438420.319 -23229750.672 10 0 60379 45000.00000 0 1629195.835 -11067164.633 -22903551.165 10 0 60379 45900.00000 0 4293791.312 -11885980.191 -22131596.955 10 0 60379 46800.00000 0 6775153.665 -12862404.635 -20928714.292 10 0 60379 47700.00000 0 9017614.554 -13953752.353 -19318153.537 10 0 60379 48600.00000 0 10975272.091 -15108911.644 -17331147.814 10 0 60379 49500.00000 0 12613667.612 -16270519.950 -15006311.730 10 0 60379 50400.00000 0 13910984.186 -17377425.583 -12388891.144 10 0 60379 51300.00000 0 14858716.235 -18367331.585 -9529878.304 10 0 60379 52200.00000 0 15461782.146 -19179509.023 -6485009.772 10 0 60379 53100.00000 0 15738075.585 -19757463.547 -3313667.456 10 0 60379 54000.00000 0 15717475.433 -20051440.757 -77705.397 10 0 60379 54900.00000 0 15440357.658 -20020662.606 3159773.238 10 0 60379 55800.00000 0 14955674.004 -19635198.719 6335663.229 10 0 60379 56700.00000 0 14318680.993 -18877392.286 9388102.266 10 0 60379 57600.00000 0 13588417.674 -17742779.620 12257687.859 10 0 60379 58500.00000 0 12825041.010 -16240464.405 14888641.086 10 0 60379 59400.00000 0 12087133.406 -14392931.276 17229893.674 10 0 60379 60300.00000 0 11429097.410 -12235307.285 19236077.024 10 0 60379 61200.00000 0 10898748.173 -9814103.277 20868394.249 10 0 60379 62100.00000 0 10535205.065 -7185488.901 22095359.245 10 0 60379 63000.00000 0 10367170.497 -4413174.115 22893389.817 10 0 60379 63900.00000 0 10411667.048 -1565986.048 23247245.058 10 0 60379 64800.00000 0 10673284.363 1284758.007 23150300.335 10 0 60379 65700.00000 0 11143965.712 4067972.929 22604656.357 10 0 60379 66600.00000 0 11803341.550 6715511.578 21621081.778 10 0 60379 67500.00000 0 12619594.773 9164743.564 20218791.694 10 0 60379 68400.00000 0 13550820.567 11360902.127 18425067.137 10 0 60379 69300.00000 0 14546823.459 13259104.065 16274723.275 10 0 60379 70200.00000 0 15551276.433 14825961.251 13809436.541 10 0 60379 71100.00000 0 16504152.137 16040719.044 11076943.203 10 0 60379 72000.00000 0 17344325.133 16895876.183 8130124.125 10 0 60379 72900.00000 0 18012237.011 17397261.941 5025992.442 10 0 60379 73800.00000 0 18452513.549 17563568.471 1824602.617 10 0 60379 74700.00000 0 18616424.837 17425358.581 -1412099.042 10 0 60379 75600.00000 0 18464085.553 17023590.656 -4621461.261 10 0 60379 76500.00000 0 17966303.075 16407722.469 -7741329.985 10 0 60379 77400.00000 0 17105995.192 15633472.815 -10711243.375 10 0 60379 78300.00000 0 15879116.977 14760334.501 -13473597.105 10 0 60379 79200.00000 0 14295056.531 13848942.659 -15974757.822 10 0 60379 80100.00000 0 12376480.910 12958408.312 -18166103.430 10 0 60379 81000.00000 0 10158636.424 12143729.013 -20004970.158 10 0 60379 81900.00000 0 7688130.053 11453385.406 -21455487.917 10 0 60379 82800.00000 0 5021240.373 10927225.074 -22489287.423 10 0 60379 83700.00000 0 2221826.043 10594723.359 -23086064.827 10 0 60379 84600.00000 0 -641083.112 10473695.323 -23233992.118 10 0 60379 85500.00000 0 -3495913.739 10569514.364 -22929964.314 99